Location: Im Fang
(46.6019°N, 7.2397°E)
Time: 19:00:00
(UTC+00:00)

SL-23 DEB - Pass Details

Date: 08 December 2019
Orbit: 423 x 3606 km, 51.5° (Epoch: 18 January)

Event Time Altitude Azimuth Distance (km) Brightness Sun altitude
Exits shadow 06:05:09 - 238° (WSW) 2,492 6.8 -9.4°
Rises 06:05:15 0° 238° (WSW) 2,443 6.8 -9.4°
Reaches altitude 10° 06:07:19 10° 236° (WSW) 1,512 5.8 -9.1°
Maximum altitude 06:10:25 75° 152° (SSE) 455 3.5 -8.6°
Drops below altitude 10° 06:14:00 10° 66° (ENE) 1,748 7.0 -8.0°
Sets 06:16:33 0° 65° (ENE) 2,886 8.1 -7.6°
